Powrót do katalogu

SL-14 R/B

AktywnyPO
NORAD 24731·ROCKET BODY·🇷🇺 Russia

Wystrzelony Feb 14, 1997 z Plesetsk Cosmodrome

Loading…

Następne Przeloty (najbliższe 24 godziny)

TLE

ŚwieżeSource: Space-Track

Epoka: Sep 14, 2026, 12:40 UTC

1 24731U 97006G   26257.52843131  .00000016  00000-0  35088-4 0  9993
2 24731  82.5963 283.6495 0041234 183.7311 331.4764 12.55273186355244

Śledź SL-14 R/B w czasie rzeczywistym z AllMySat

Download on the App Store